When you browse on this site, cookies collect data to enhance your experience and personalize the content and advertising you see.
Visit our Privacy Policy to learn more. By continuing to use the site, you agree to this use of cookies and data.
  • în România
  • Lista ţărilor
  • Pe 7 zile
  • Temperatura apei
  • Hartă satelitară
  • Meteo pe hartă
  • Widget-uri
  • user-avatar
    Intrare

    Meteo pe oră la Beverly

    Astăzi, 22 Aprilie, Luni

    Timp Temperatura Precipitaţii Vânt Presiune Umiditate
    00:00 +9°C° 0 mm 3 m/s 759 mmHg 71%
    01:00 +9°C° 0 mm 3 m/s 759 mmHg 70%
    02:00 +8°C° 0 mm 3 m/s 758 mmHg 69%
    03:00 +8°C° 0 mm 3 m/s 758 mmHg 68%
    04:00 +8°C° 0 mm 2 m/s 757 mmHg 68%
    05:00 +8°C° 0 mm 2 m/s 757 mmHg 68%
    06:00 +9°C° 0 mm 1 m/s 757 mmHg 73%
    07:00 +10°C° 0 mm 2 m/s 757 mmHg 71%
    08:00 +12°C° 0 mm 3 m/s 756 mmHg 70%
    09:00 +14°C° 0 mm 3 m/s 756 mmHg 68%
    10:00 +15°C° 0 mm 4 m/s 756 mmHg 66%
    11:00 +17°C° 0 mm 4 m/s 755 mmHg 64%
    12:00 +17°C° 0 mm 5 m/s 755 mmHg 62%
    13:00 +17°C° 0 mm 5 m/s 754 mmHg 60%
    14:00 +17°C° 0 mm 5 m/s 754 mmHg 59%
    15:00 +17°C° 0 mm 5 m/s 753 mmHg 58%
    16:00 +16°C° 0 mm 5 m/s 753 mmHg 63%
    17:00 +15°C° 0 mm 5 m/s 753 mmHg 68%
    18:00 +13°C° 0 mm 5 m/s 752 mmHg 73%
    19:00 +12°C° 0 mm 5 m/s 752 mmHg 75%
    20:00 +12°C° 0 mm 4 m/s 752 mmHg 76%
    21:00 +11°C° 0 mm 4 m/s 752 mmHg 77%
    22:00 +11°C° 0 mm 4 m/s 752 mmHg 79%
    23:00 +11°C° 0 mm 4 m/s 752 mmHg 80%

    Mâine, 23 Aprilie, Marţi

    Timp Temperatura Precipitaţii Vânt Presiune Umiditate
    00:00 +10°C° 0 mm 5 m/s 752 mmHg 81%
    01:00 +11°C° 0 mm 4 m/s 752 mmHg 83%
    02:00 +10°C° 0 mm 4 m/s 751 mmHg 84%
    03:00 +10°C° 0 mm 4 m/s 751 mmHg 85%
    04:00 +9°C° 0 mm 5 m/s 751 mmHg 84%
    05:00 +9°C° 0 mm 5 m/s 751 mmHg 83%
    06:00 +9°C° 0 mm 6 m/s 751 mmHg 82%
    07:00 +10°C° 0 mm 6 m/s 751 mmHg 80%
    08:00 +11°C° 0 mm 6 m/s 751 mmHg 77%
    09:00 +13°C° 0 mm 6 m/s 750 mmHg 74%
    10:00 +13°C° 0 mm 6 m/s 750 mmHg 72%
    11:00 +14°C° 0 mm 6 m/s 750 mmHg 71%
    12:00 +14°C° 0 mm 7 m/s 750 mmHg 69%
    13:00 +14°C° 0 mm 7 m/s 750 mmHg 70%
    14:00 +14°C° 0 mm 7 m/s 749 mmHg 71%
    15:00 +14°C° 0 mm 7 m/s 749 mmHg 72%
    16:00 +13°C° 0 mm 6 m/s 749 mmHg 75%
    17:00 +11°C° 0 mm 6 m/s 749 mmHg 79%
    18:00 +10°C° 0 mm 6 m/s 748 mmHg 82%
    19:00 +9°C° 0 mm 5 m/s 748 mmHg 86%
    20:00 +8°C° 0 mm 5 m/s 748 mmHg 90%
    21:00 +8°C° 0 mm 4 m/s 748 mmHg 93%
    22:00 +8°C° 0 mm 5 m/s 748 mmHg 93%
    23:00 +8°C° 0 mm 5 m/s 747 mmHg 92%

    Poimâine, 24 Aprilie, Miercuri

    Timp Temperatura Precipitaţii Vânt Presiune Umiditate
    00:00 +9°C° 0 mm 5 m/s 747 mmHg 91%
    01:00 +9°C° 0 mm 5 m/s 747 mmHg 92%
    02:00 +8°C° 0 mm 5 m/s 746 mmHg 93%
    03:00 +8°C° 0 mm 6 m/s 746 mmHg 94%
    04:00 +9°C° 0 mm 6 m/s 745 mmHg 93%
    05:00 +9°C° 0 mm 6 m/s 745 mmHg 92%
    06:00 +9°C° 0 mm 6 m/s 745 mmHg 91%
    07:00 +10°C° 0 mm 6 m/s 744 mmHg 90%
    08:00 +10°C° 0 mm 6 m/s 744 mmHg 89%
    09:00 +11°C° 0 mm 6 m/s 744 mmHg 88%
    10:00 +13°C° 0.4 mm 6 m/s 744 mmHg 87%
    11:00 +14°C° 0.4 mm 6 m/s 744 mmHg 86%
    12:00 +15°C° 0.4 mm 6 m/s 744 mmHg 86%
    13:00 +14°C° 0.3 mm 6 m/s 744 mmHg 83%
    14:00 +12°C° 0.3 mm 7 m/s 745 mmHg 81%
    15:00 +10°C° 0.3 mm 7 m/s 745 mmHg 78%
    16:00 +11°C° 0 mm 6 m/s 745 mmHg 78%
    17:00 +13°C° 0 mm 4 m/s 745 mmHg 77%
    18:00 +13°C° 0 mm 3 m/s 746 mmHg 76%
    19:00 +12°C° 0.3 mm 3 m/s 746 mmHg 79%
    20:00 +11°C° 0.3 mm 4 m/s 747 mmHg 82%
    21:00 +10°C° 0.3 mm 4 m/s 748 mmHg 85%
    22:00 +8°C° 0 mm 4 m/s 748 mmHg 86%
    23:00 +8°C° 0 mm 4 m/s 747 mmHg 88%

    25 Aprilie, Joi

    Timp Temperatura Precipitaţii Vânt Presiune Umiditate
    00:00 +7°C° 0 mm 5 m/s 747 mmHg 89%
    01:00 +7°C° 0 mm 5 m/s 747 mmHg 90%
    02:00 +7°C° 0 mm 5 m/s 747 mmHg 90%
    03:00 +7°C° 0 mm 5 m/s 746 mmHg 90%
    04:00 +8°C° 0.1 mm 6 m/s 746 mmHg 90%
    05:00 +8°C° 0.1 mm 7 m/s 746 mmHg 89%
    06:00 +9°C° 0.1 mm 8 m/s 745 mmHg 88%
    07:00 +9°C° 0.9 mm 8 m/s 746 mmHg 89%
    08:00 +10°C° 0.9 mm 7 m/s 746 mmHg 89%
    09:00 +10°C° 0.9 mm 7 m/s 746 mmHg 89%
    10:00 +10°C° 0.5 mm 7 m/s 746 mmHg 86%
    11:00 +11°C° 0.5 mm 7 m/s 746 mmHg 82%
    12:00 +11°C° 0.5 mm 8 m/s 746 mmHg 79%
    13:00 +12°C° 0.5 mm 8 m/s 746 mmHg 75%
    14:00 +12°C° 0.5 mm 9 m/s 745 mmHg 72%
    15:00 +13°C° 0.5 mm 9 m/s 745 mmHg 68%
    16:00 +12°C° 0.3 mm 9 m/s 745 mmHg 74%
    17:00 +11°C° 0.3 mm 9 m/s 745 mmHg 79%
    18:00 +9°C° 0.3 mm 10 m/s 746 mmHg 84%
    19:00 +10°C° 0 mm 9 m/s 747 mmHg 82%
    20:00 +9°C° 0 mm 8 m/s 748 mmHg 80%
    21:00 +9°C° 0 mm 8 m/s 749 mmHg 79%
    22:00 +8°C° 0 mm 7 m/s 750 mmHg 81%
    23:00 +8°C° 0 mm 6 m/s 751 mmHg 84%

    26 Aprilie, Vineri

    Timp Temperatura Precipitaţii Vânt Presiune Umiditate
    00:00 +7°C° 0 mm 6 m/s 752 mmHg 87%
    01:00 +7°C° 0 mm 5 m/s 753 mmHg 89%
    02:00 +6°C° 0 mm 5 m/s 753 mmHg 90%
    03:00 +6°C° 0 mm 4 m/s 754 mmHg 92%
    04:00 +6°C° 0 mm 4 m/s 754 mmHg 91%
    05:00 +7°C° 0 mm 4 m/s 754 mmHg 90%
    06:00 +7°C° 0 mm 4 m/s 755 mmHg 90%
    07:00 +8°C° 0 mm 4 m/s 755 mmHg 84%
    08:00 +11°C° 0 mm 4 m/s 755 mmHg 79%
    09:00 +12°C° 0 mm 5 m/s 756 mmHg 74%
    10:00 +13°C° 0 mm 5 m/s 756 mmHg 70%
    11:00 +14°C° 0 mm 4 m/s 756 mmHg 66%
    12:00 +15°C° 0 mm 4 m/s 756 mmHg 62%
    13:00 +15°C° 0.1 mm 4 m/s 756 mmHg 61%
    14:00 +15°C° 0.1 mm 5 m/s 756 mmHg 60%
    15:00 +16°C° 0.1 mm 5 m/s 756 mmHg 60%
    16:00 +15°C° 0.4 mm 4 m/s 756 mmHg 66%
    17:00 +14°C° 0.4 mm 4 m/s 757 mmHg 72%
    18:00 +13°C° 0.4 mm 4 m/s 757 mmHg 79%
    19:00 +11°C° 0 mm 4 m/s 757 mmHg 82%
    20:00 +10°C° 0 mm 4 m/s 757 mmHg 85%
    21:00 +7°C° 0 mm 4 m/s 758 mmHg 88%
    22:00 +7°C° 0 mm 4 m/s 758 mmHg 86%
    23:00 +7°C° 0 mm 5 m/s 758 mmHg 85%

    27 Aprilie, Sâmbătă

    Timp Temperatura Precipitaţii Vânt Presiune Umiditate
    00:00 +5°C° 0 mm 6 m/s 758 mmHg 84%
    01:00 +5°C° 0 mm 6 m/s 758 mmHg 83%
    02:00 +5°C° 0 mm 6 m/s 758 mmHg 82%
    03:00 +6°C° 0 mm 5 m/s 758 mmHg 81%
    04:00 +6°C° 0 mm 5 m/s 758 mmHg 80%
    05:00 +5°C° 0 mm 5 m/s 759 mmHg 80%
    06:00 +5°C° 0 mm 5 m/s 759 mmHg 80%
    07:00 +5°C° 0 mm 6 m/s 759 mmHg 74%
    08:00 +8°C° 0 mm 7 m/s 760 mmHg 67%
    09:00 +9°C° 0 mm 7 m/s 760 mmHg 61%
    10:00 +9°C° 0 mm 7 m/s 760 mmHg 60%
    11:00 +10°C° 0 mm 7 m/s 760 mmHg 60%
    12:00 +10°C° 0 mm 7 m/s 760 mmHg 60%
    13:00 +9°C° 0.6 mm 6 m/s 759 mmHg 69%
    14:00 +8°C° 0.6 mm 5 m/s 759 mmHg 77%
    15:00 +8°C° 0.6 mm 3 m/s 758 mmHg 86%
    16:00 +9°C° 0.3 mm 3 m/s 758 mmHg 88%
    17:00 +9°C° 0.3 mm 3 m/s 758 mmHg 90%
    18:00 +9°C° 0.3 mm 2 m/s 757 mmHg 92%
    19:00 +9°C° 0 mm 2 m/s 758 mmHg 92%
    20:00 +8°C° 0 mm 3 m/s 758 mmHg 91%
    21:00 +7°C° 0 mm 3 m/s 759 mmHg 91%
    22:00 +7°C° 0 mm 3 m/s 759 mmHg 91%
    23:00 +7°C° 0 mm 3 m/s 759 mmHg 90%
    Arată mai mult